FW4241 Weather Reports


Display with metric or nautical units.
time (UTC)temp
F
wind
direction
speed
MPH
gust
MPH
rain 1hr
in
rain 24hr
in
rain mn
in
humidity
%
barometer
mb
20260505164522 57 213 1.0 3.0 0.00 0.00 0.00 83 1016.4
20260505163019 56 226 0.0 2.0 0.00 0.00 0.00 84 1016.3
20260505161525 56 258 1.0 4.0 0.00 0.00 0.00 83 1016.3
20260505153110 56 124 0.0 4.0 0.00 0.00 0.00 85 1016.2
20260505151510 55 191 0.0 5.0 0.00 0.00 0.00 86 1016.2
20260505140112 54 180 0.0 3.0 0.00 0.00 0.00 88 1015.5
20260505124518 54 160 1.0 4.0 0.00 0.00 0.00 87 1015.2
20260505123015 54 148 1.0 3.0 0.00 0.00 0.00 86 1015.2
20260505121514 54 141 0.0 2.0 0.00 0.00 0.00 86 1015.2
20260505120012 54 167 0.0 1.0 0.00 0.00 0.00 86 1015.1
20260505114511 54 222 0.0 3.0 0.00 0.00 0.00 86 1015.0
20260505113010 54 218 1.0 3.0 0.00 0.00 0.00 86 1015.0
20260505111509 54 156 0.0 0.0 0.00 0.00 0.00 87 1015.1
20260505101508 53 82 0.0 1.0 0.00 0.00 0.00 88 1014.6
20260505100101 53 176 0.0 0.0 0.00 0.00 0.00 88 1014.6
20260505094603 53 176 0.0 0.0 0.00 0.00 0.00 87 1014.6
20260505093102 53 155 0.0 2.0 0.00 0.00 0.00 87 1014.5
20260505091609 54 167 0.0 1.0 0.00 0.00 0.00 86 1014.4
20260505090054 54 131 1.0 3.0 0.00 0.00 0.00 86 1014.2
20260505084551 54 252 0.0 3.0 0.00 0.00 0.00 85 1014.2
20260505083048 55 160 0.0 3.0 0.00 0.00 0.00 84 1014.1
20260505081548 56 169 0.0 2.0 0.00 0.00 0.00 83 1013.9
20260505080052 56 119 1.0 2.0 0.00 0.00 0.00 82 1013.9
20260505074542 57 171 0.0 3.0 0.00 0.00 0.00 82 1013.8
20260505073045 57 205 0.0 1.0 0.00 0.00 0.00 83 1013.5
20260505071541 57 184 0.0 2.0 0.00 0.00 0.00 83 1013.3
20260505070050 57 154 0.0 1.0 0.00 0.00 0.00 82 1013.3
20260505064511 58 135 0.0 5.0 0.00 0.00 0.00 81 1012.9
20260505063011 59 276 0.0 5.0 0.00 0.00 0.00 80 1012.8
20260505061507 60 167 0.0 2.0 0.00 0.00 0.00 79 1012.6
20260505060006 61 188 1.0 4.0 0.00 0.00 0.00 78 1012.4
20260505054506 62 178 0.0 6.0 0.00 0.00 0.00 77 1012.4
20260505053005 63 117 0.0 3.0 0.00 0.00 0.00 77 1012.3
20260505051503 63 143 0.0 1.0 0.00 0.00 0.00 77 1012.2
20260505041605 65 271 0.0 4.0 0.00 0.00 0.00 77 1011.5
20260505040059 66 182 0.0 0.0 0.00 0.00 0.00 77 1011.1
20260505034558 67 159 0.0 1.0 0.00 0.00 0.00 75 1010.9
20260505033058 68 219 0.0 0.0 0.00 0.00 0.00 74 1010.6
20260505031605 68 214 0.0 2.0 0.00 0.00 0.00 72 1010.5
20260505030055 69 220 0.0 3.0 0.00 0.00 0.00 71 1010.4
20260505024603 70 160 0.0 7.0 0.00 0.00 0.00 70 1010.3
20260505023054 71 231 1.0 6.0 0.00 0.00 0.00 68 1010.3
20260505021554 71 146 3.0 6.0 0.00 0.00 0.00 67 1010.2
20260505020050 72 122 2.0 7.0 0.00 0.00 0.00 66 1010.3
20260505014604 73 153 2.0 5.0 0.00 0.00 0.00 64 1010.2
20260505013050 74 157 2.0 7.0 0.00 0.00 0.00 63 1010.4
20260505011556 74 171 2.0 7.0 0.00 0.00 0.00 62 1010.5
20260505010043 75 197 5.0 9.0 0.00 0.00 0.00 60 1010.5
20260505004543 75 167 1.0 7.0 0.00 0.00 0.00 62 1010.6
20260505003142 74 190 1.0 7.0 0.00 0.00 0.00 61 1010.7
20260505001538 74 279 2.0 7.0 0.00 0.00 0.00 61 1010.7
20260505000048 74 117 4.0 0.0 0.00 0.00 0.00 61 1010.8
20260504234545 74 199 2.0 9.0 0.00 0.00 0.00 60 1010.7
20260504233135 74 186 4.0 9.0 0.00 0.00 0.00 60 1010.8
20260504231533 75 194 2.0 8.0 0.00 0.00 0.00 60 1010.9
20260504230030 73 208 3.0 9.0 0.00 0.00 0.00 60 1011.1
20260504224531 73 240 3.0 9.0 0.00 0.00 0.00 60 1011.3
20260504223035 72 222 4.0 9.0 0.00 0.00 0.00 61 1011.3
20260504221526 71 219 6.0 9.0 0.00 0.00 0.00 62 1011.7
20260504220021 72 234 1.0 7.0 0.00 0.00 0.00 62 1011.9
20260504214525 70 266 1.0 8.0 0.00 0.00 0.00 63 1012.0
20260504213032 70 140 2.0 8.0 0.00 0.00 0.00 63 1012.2
20260504211521 70 209 2.0 8.0 0.00 0.00 0.00 64 1012.3
20260504210015 70 168 2.0 7.0 0.00 0.00 0.00 63 1012.5
20260504204531 69 155 3.0 7.0 0.00 0.00 0.00 65 1012.7
20260504203012 67 147 3.0 8.0 0.00 0.00 0.00 69 1012.8
20260504201538 66 203 3.0 8.0 0.00 0.00 0.00 69 1012.9
20260504200036 65 203 3.0 9.0 0.00 0.00 0.00 70 1013.2
20260504194531 65 172 4.0 8.0 0.00 0.00 0.00 71 1013.2
20260504193028 64 103 1.0 6.0 0.00 0.00 0.00 73 1013.4
20260504191526 62 247 2.0 6.0 0.00 0.00 0.00 75 1013.4
20260504190025 61 198 2.0 10.0 0.00 0.00 0.00 77 1013.4
20260504184523 61 248 3.0 9.0 0.00 0.00 0.00 76 1013.7
20260504183021 61 268 4.0 11.0 0.00 0.00 0.00 77 1013.6
20260504181520 60 144 3.0 10.0 0.00 0.00 0.00 78 1013.7
20260504181517 60 196 3.0 10.0 0.00 0.00 0.00 78 1013.7
20260504180018 60 238 3.0 7.0 0.00 0.00 0.00 79 1013.6
20260504174513 59 155 3.0 8.0 0.00 0.00 0.00 80 1013.5
20260504173010 59 233 3.0 8.0 0.00 0.00 0.00 80 1013.5
20260504171510 58 219 3.0 7.0 0.00 0.00 0.00 81 1013.6